Regional Weather Roundup
Issued by NWS

Home | Current Version | Previous Version | Graphics & Text | Print | Product List | Glossary On
Versions: 1 2 3 4 5 6 7 8 9 10 11 12 13 14 15 16 17 18 19 20 21 22 23 24 25 26 27 28 29 30 31 32 33 34 35 36 37 38 39 40 41 42 43 44 45 46 47 48 49 50
761
ASUS43 KDMX 201201
RWRIA

WEATHER ROUNDUP FOR IOWA
NATIONAL WEATHER SERVICE DES MOINES IA
700 AM CDT FRI APR 20 2018

NOTE: "FAIR" INDICATES FEW OR NO CLOUDS BELOW 12,000 FEET WITH NO
SIGNIFICANT WEATHER AND/OR OBSTRUCTIONS TO VISIBILITY.

* - THESE STATIONS ARE NOT NWS STATIONS...THUS NOT UNDER NWS
QUALITY CONTROL.  THEY ALSO DO NOT REPORT WEATHER SUCH
AS PRECIPITATION OR FOG.

IAZ001>003-012>014-020>022-031>034-043>046-201300-
   NORTHWEST IOWA

CITY           SKY/WX    TMP DP  RH WIND       PRES   REMARKS
CARROLL *      CLOUDY    28  28 100 CALM      30.46R
CHEROKEE *     PTCLDY    32  24  73 SE6       30.45S WCI  26
DENISON *      PTCLDY    34  27  75 CALM      30.46R
LE MARS *      CLOUDY    32  27  80 SE3       30.43S
ORANGE CITY *  CLOUDY    30  25  80 E5        30.43S WCI  25
SHELDON *      CLOUDY    30  27  86 E6        30.43R WCI  24
SIOUX CITY     MOCLDY    31  25  78 E9        30.43R WCI  23
6HR MIN TEMP:  29; 6HR MAX TEMP:  32;

SPENCER        CLOUDY    22  17  81 E5        30.46R WCI  16
6HR MIN TEMP:  21; 6HR MAX TEMP:  25;

STORM LAKE *   CLOUDY    30  23  74 SE10      30.44S WCI  21
$$

IAZ055>058-069>071-079>083-090>094-201300-
   SOUTHWEST IOWA

CITY           SKY/WX    TMP DP  RH WIND       PRES   REMARKS
ATLANTIC *     CLOUDY    32  27  80 NE3       30.45R
AUDUBON *      CLOUDY    30  27  86 CALM      30.45S
CLARINDA *     PTCLDY    36  27  69 CALM      30.47R
COUNCIL BLFS * CLOUDY    36  28  75 SE8       30.43R WCI  29
CRESTON *      CLOUDY    32  27  80 E7        30.46R WCI  26
HARLAN  *      PTCLDY    34  27  75 CALM      30.48R
LAMONI         CLOUDY    34  24  67 E6        30.45R WCI  29
6HR MIN TEMP:  31; 6HR MAX TEMP:  38;

RED OAK *      PTCLDY    36  27  69 CALM      30.45R
SHENANDOAH *   CLOUDY    32  27  80 E3        30.45R
$$

IAZ047>049-059>061-072>074-084-201300-
   CENTRAL IOWA

CITY           SKY/WX    TMP DP  RH WIND       PRES   REMARKS
AMES           PTCLDY    29  24  82 CALM      30.48S
6HR MIN TEMP:  27; 6HR MAX TEMP:  34;

ANKENY *       CLOUDY    30  25  80 CALM      30.49S
BOONE *        PTCLDY    30  27  86 E6        30.46S WCI  24
CHARITON *     CLOUDY    32  27  80 SE7       30.47S WCI  26
DES MOINES     CLOUDY    34  24  67 E7        30.47F WCI  28
6HR MIN TEMP:  33; 6HR MAX TEMP:  40;

GRINNELL*      CLOUDY    32  25  76 E7        30.49S WCI  25
KNOXVILLE *    CLOUDY    32  23  69 E6        30.47S WCI  26
MARSHALLTOWN   CLOUDY    28  25  88 CALM      30.48S
6HR MIN TEMP:  26; 6HR MAX TEMP:  31;

NEWTON *       CLOUDY    30  25  80 E8        30.49R WCI  23
PELLA *        CLOUDY    34  24  67 E6        30.50R WCI  29
$$

IAZ004>006-015-016-023>025-035-036-201300-
   NORTH CENTRAL IOWA

CITY           SKY/WX    TMP DP  RH WIND       PRES   REMARKS
ALGONA *       CLOUDY    21  19  93 E3        30.47R
CLARION *      CLOUDY    28  21  74 E9        30.48S WCI  20
ESTHERVILLE    CLOUDY    18  17  96 SE3       30.46R
6HR MIN TEMP:  15; 6HR MAX TEMP:  22;

FORT DODGE *   CLOUDY    28  26  92 E3        30.47S
MASON CITY     CLOUDY    19  16  88 CALM      30.51R FOG
6HR MIN TEMP:  17; 6HR MAX TEMP:  23;

FOREST CITY *    N/A    N/A N/A N/A CALM      30.49R FOG
WEBSTER CITY * CLOUDY    30  27  86 E6        30.46S WCI  24
IOWA FALLS *   FAIR      30  25  81 CALM      30.49S
$$

IAZ007>011-017>019-026>030-037>042-050>054-066-201300-
   NORTHEAST IOWA

CITY           SKY/WX    TMP DP  RH WIND       PRES   REMARKS
CEDAR RAPIDS   FAIR      28  24  85 N6        30.49R WCI  22
6HR MIN TEMP:  25; 6HR MAX TEMP:  32;

CHARLES CITY * FAIR      23  23 100 NE5       30.50R WCI  17
CLINTON *      FAIR      28  26  92 CALM      30.52R
DECORAH *      FAIR      25  23  93 CALM      30.49R
DUBUQUE        FAIR      30  21  69 NE3       30.50R
6HR MIN TEMP:  27; 6HR MAX TEMP:  32;

MONTICELLO *   FAIR      23  23 100 CALM      30.51R
OELWEIN *      FAIR      28  28 100 NE7       30.50R WCI  21
WATERLOO       FAIR      22  21  96 CALM      30.50R FOG
6HR MIN TEMP:  21; 6HR MAX TEMP:  26;

$$

IAZ064-065-067-068-078-201300-
   EAST CENTRAL IOWA

CITY           SKY/WX    TMP DP  RH WIND       PRES   REMARKS
DAVENPORT      FAIR      28  24  85 E5        30.53R WCI  23
6HR MIN TEMP:  26; 6HR MAX TEMP:  35;

IOWA CITY      FAIR      28  24  85 CALM      30.52R
6HR MIN TEMP:  27; 6HR MAX TEMP:  33;

MT. PLEASANT * CLOUDY    30  25  80 E6        30.50R WCI  24
MUSCATINE *    FAIR      28  25  86 CALM      30.52R
QUAD CITIES    FAIR      26  23  88 CALM      30.51R
6HR MIN TEMP:  24; 6HR MAX TEMP:  30;

$$

IAZ062-063-075>077-085>089-095>099-201300-
   SOUTHEAST IOWA

CITY           SKY/WX    TMP DP  RH WIND       PRES   REMARKS
BURLINGTON     CLOUDY    34  25  69 NE5       30.50R WCI  30
6HR MIN TEMP:  32; 6HR MAX TEMP:  40;

FAIRFIELD *    CLOUDY    28  23  80 E5        30.49S WCI  23
FORT MADISON * CLOUDY    32  27  80 CALM      30.51R
KEOKUK *       CLOUDY    32  27  80 NE5       30.50R WCI  27
OSKALOOSA *    FAIR      29  25  84 E7        30.50R WCI  22
CENTERVILLE *    N/A     32  28  86 CALM      30.49R
OTTUMWA        CLOUDY    32  24  72 E7        30.49R WCI  26
6HR MIN TEMP:  27; 6HR MAX TEMP:  36;

WASHINGTON *   CLOUDY    30  27  86 NE5       30.51R WCI  25
$$

ABBREVIATIONS USED IN REMARKS
   TC - TEMPERATURES IN CELSIUS
  WCI - WIND CHILL INDEX
   HX - HEAT INDEX
  VSB - VISIBILITY
$$





USA.gov is the U.S. government's official web portal to all federal, state and local government web resources and services.